EW3163 Weather Reports


Display with metric or nautical units.
time (UTC)temp
F
wind
direction
speed
MPH
gust
MPH
rain 1hr
in
rain 24hr
in
rain mn
in
humidity
%
barometer
mb
20260831101502 63 310 0.0 0.0 0.00 0.27 0.00 86 1006.4
20260831094552 63 328 0.0 0.0 0.00 0.27 0.00 89 1006.1
20260831093048 62 300 0.0 1.0 0.00 0.27 0.00 92 1005.9
20260831091549 61 18 0.0 0.0 0.00 0.27 0.00 95 1005.7
20260831090039 60 314 0.0 0.0 0.00 0.27 0.00 96 1005.7
20260831084541 59 332 0.0 0.0 0.00 0.27 0.00 96 1005.4
20260831083029 59 98 0.0 0.0 0.00 0.27 0.00 96 1005.2
20260831081528 59 128 0.0 0.0 0.00 0.27 0.00 96 1005.0
20260831080020 58 128 0.0 0.0 0.00 0.27 0.00 96 1004.7
20260831074532 57 136 0.0 0.0 0.00 0.30 0.00 96 1004.5
20260831073020 56 113 0.0 0.0 0.00 0.30 0.00 96 1004.3
20260831071506 56 113 0.0 0.0 0.00 0.30 0.00 96 1004.2
20260831070002 55 113 0.0 0.0 0.00 0.31 0.00 96 1004.1
20260831064607 55 113 0.0 0.0 0.00 0.31 0.00 96 1003.8
20260831063056 0 0.0 0.0 0.00 0.31 0.00 1003.5
20260831061551 0 0.0 0.0 0.00 0.31 0.00 1003.4
20260831060059 0 0.0 0.0 0.00 0.31 0.00 1003.2
20260831054541 0 0.0 0.0 0.00 0.31 0.00 1003.0
20260831053036 0 0.0 0.0 0.00 0.31 0.00 1002.8
20260831051531 -90 121 0.0 0.0 0.00 0.31 0.00 100 1002.6
20260831050040 54 113 0.0 0.0 0.00 0.31 0.00 96 1002.5
20260831044525 54 113 0.0 0.0 0.00 0.31 0.00 96 1002.4
20260831043027 54 113 0.0 0.0 0.00 0.31 0.00 96 1002.3
20260831041525 55 113 0.0 0.0 0.00 0.31 0.00 96 1002.2
20260831040040 55 113 0.0 0.0 0.00 0.31 0.00 96 1002.1
20260831034529 55 113 0.0 0.0 0.00 0.31 0.00 96 1002.0
20260831033020 55 113 0.0 0.0 0.00 0.31 0.00 96 1002.0
20260831031517 55 113 0.0 0.0 0.00 0.31 0.00 96 1002.0
20260831030036 55 113 0.0 0.0 0.00 0.31 0.00 96 1001.9
20260831024517 55 113 0.0 0.0 0.00 0.31 0.00 96 1001.7
20260831023015 55 113 0.0 0.0 0.00 0.31 0.00 96 1001.5
20260831021516 55 113 0.0 0.0 0.00 0.31 0.00 96 1001.5
20260831020013 56 113 0.0 0.0 0.00 0.31 0.00 96 1001.5
20260831014510 56 113 0.0 0.0 0.00 0.31 0.00 96 1001.4
20260831013009 56 113 0.0 0.0 0.00 0.31 0.00 96 1001.4
20260831011506 56 113 0.0 0.0 0.00 0.31 0.00 96 1001.4
20260831010006 56 113 0.0 0.0 0.00 0.31 0.00 96 1001.5
20260831004506 56 113 0.0 0.0 0.00 0.31 0.00 96 1001.6
20260831003006 56 113 0.0 0.0 0.00 0.31 0.00 96 1001.6
20260831001503 57 113 0.0 0.0 0.00 0.31 0.00 96 1001.8
20260831000104 57 113 0.0 0.0 0.00 0.31 0.00 96 1001.9
20260830234606 57 113 0.0 0.0 0.00 0.31 0.00 96 1002.0
20260830233105 57 113 0.0 0.0 0.00 0.31 0.00 96 1001.9
20260830231558 57 113 0.0 0.0 0.00 0.31 0.00 95 1002.0
20260830230056 57 113 0.0 0.0 0.00 0.31 0.00 95 1002.0
20260830224555 57 113 0.0 0.0 0.00 0.31 0.31 95 1002.1
20260830223055 57 113 0.0 0.0 0.00 0.31 0.31 95 1002.2
20260830221557 57 113 0.0 0.0 0.01 0.31 0.31 95 1002.3
20260830214553 58 190 0.0 0.0 0.16 0.31 0.31 95 1002.5
20260830213052 58 190 0.0 0.0 0.19 0.31 0.31 95 1002.4
20260830211554 59 191 0.0 0.0 0.18 0.30 0.30 95 1002.2
20260830210050 60 128 0.0 0.0 0.12 0.24 0.24 95 1002.5
20260830204556 60 174 0.0 0.0 0.03 0.15 0.15 95 1002.9
20260830203047 60 174 0.0 0.0 0.00 0.12 0.12 95 1002.9
20260830201556 60 175 0.0 0.0 0.00 0.12 0.12 95 1002.8
20260830200049 60 176 0.0 0.0 0.00 0.12 0.12 95 1002.8
20260830194549 60 175 0.0 0.0 0.00 0.12 0.12 95 1002.7
20260830193045 60 175 0.0 0.0 0.00 0.12 0.12 95 1002.6
20260830191616 60 176 0.0 0.0 0.00 0.12 0.12 95 1002.6
20260830190057 60 176 0.0 0.0 0.00 0.12 0.12 94 1002.7
20260830184543 60 176 0.0 0.0 0.00 0.12 0.12 94 1002.7
20260830183043 60 176 0.0 0.0 0.00 0.12 0.12 94 1002.6
20260830181543 61 175 0.0 0.0 0.00 0.12 0.12 94 1002.7
20260830180043 61 175 0.0 0.0 0.00 0.12 0.12 94 1002.8
20260830174542 61 176 0.0 0.0 0.02 0.12 0.12 94 1002.9
20260830173046 61 176 0.0 0.0 0.06 0.12 0.12 93 1003.0
20260830171539 61 188 0.0 0.0 0.07 0.12 0.12 93 1003.3
20260830170038 61 75 0.0 0.0 0.08 0.12 0.12 92 1003.3
20260830164538 62 122 0.0 1.0 0.06 0.10 0.10 90 1003.5
20260830163041 63 29 0.0 0.0 0.02 0.06 0.06 87 1003.7
20260830161541 66 60 0.0 0.0 0.01 0.05 0.05 79 1003.7
20260830160040 69 188 0.0 0.0 0.00 0.04 0.04 68 1002.9
20260830154537 70 140 0.0 0.0 0.00 0.04 0.04 68 1002.7
20260830153035 70 123 0.0 0.0 0.00 0.04 0.04 67 1002.7
20260830151532 71 98 0.0 0.0 0.00 0.04 0.04 67 1002.8
20260830150034 72 129 0.0 2.0 0.00 0.04 0.04 64 1003.0
20260830144530 72 150 0.0 0.0 0.00 0.04 0.04 67 1003.2
20260830143025 72 146 0.0 2.0 0.00 0.04 0.04 67 1003.3
20260830141521 72 138 0.0 0.0 0.00 0.04 0.04 69 1003.5
20260830140020 71 188 0.0 0.0 0.00 0.04 0.04 69 1003.8
20260830134518 72 168 0.0 0.0 0.00 0.04 0.04 71 1003.8
20260830133015 70 130 0.0 0.0 0.00 0.04 0.04 73 1004.1
20260830131531 70 352 0.0 0.0 0.00 0.04 0.04 72 1004.3
20260830130011 69 153 0.0 4.0 0.00 0.04 0.04 75 1004.3
20260830124507 68 149 0.0 0.0 0.00 0.04 0.04 81 1004.4
20260830123009 68 162 0.0 1.0 0.00 0.04 0.04 80 1004.4
20260830121507 68 130 0.0 0.0 0.00 0.04 0.04 81 1004.5
20260830120006 67 142 0.0 0.0 0.00 0.04 0.04 83 1004.6
20260830114505 67 145 0.0 1.0 0.00 0.04 0.04 80 1004.7
20260830113004 68 147 0.0 0.0 0.00 0.04 0.04 80 1004.8
20260830111501 67 108 0.0 1.0 0.00 0.04 0.04 85 1004.8
20260830110059 66 131 0.0 0.0 0.00 0.04 0.04 88 1005.0
20260830104557 65 151 0.0 0.0 0.00 0.04 0.04 89 1005.0
20260830103052 65 157 0.0 0.0 0.00 0.04 0.04 90 1005.0